Baltimore, MD

3:49 PM EST on December 02, 2016 (GMT -0500)
Baltimore-Washington International

Weather History for KBWI - November, 2013

Change the Weather History Date:

Thursday, November 7, 2013

  Actual Average Record
Temperature  
Mean Temperature 52 °F 49 °F  
Max Temperature 61 °F 60 °F 77 °F (1975)
Min Temperature 43 °F 39 °F 22 °F (1962)
Degree Days  
Heating Degree Days 13 16  
Month to date heating degree days 92 104  
Since 1 July heating degree days 381 451  
Cooling Degree Days 0 0  
Month to date cooling degree days 0 0  
Year to date cooling degree days 1339 1163  
Growing Degree Days 4 (Base 50)    
Moisture  
Dew Point 45 °F    
Average Humidity 69    
Maximum Humidity 93    
Minimum Humidity 45    
Precipitation  
Precipitation 0.05 in 0.11 in 2.44 in (1997)
Month to date precipitation 0.22 0.79  
Year to date precipitation 35.06 36.00  
Snow  
Snow 0.00 in 0.00 in 0.40 in (1953)
Month to date snowfall 0.0 0.0  
Since 1 July snowfall 0.0 0.0  
Snow Depth 0.00 in    
Sea Level Pressure  
Sea Level Pressure 29.95 in    
Wind  
Wind Speed 9 mph (West)    
Max Wind Speed 24 mph    
Max Gust Speed 37 mph    
Visibility 10 miles    
Events Rain    
T = Trace of Precipitation, MM = Missing Value Source: NWS Daily Summary

Daily Weather History Graph

Daily Weather History Graph

Search for Another Location

Airport or City:

Trip Planner

Search our weather history database for the weather conditions in past years. The results will help you decide how hot, cold, wet, or windy it might be!

Date:

Astronomy

Nov. 07, 2013 Rise Set
Actual Time 6:41 AM EST 4:59 PM EST
Civil Twilight 6:13 AM EST 5:27 PM EST
Nautical Twilight 5:41 AM EST 5:59 PM EST
Astronomical Twilight 5:09 AM EST 6:30 PM EST
Moon 10:47 AM EST (11/7) 9:08 PM EST (11/7)
Length of Visible Light 11h 14m
Length of Day
10h 17m
Waxing Crescent, 22% of the Moon is Illuminated
Nov 7
Waxing Crescent
Nov 10
First Quarter
Nov 17
Full
Nov 25
Last Quarter
Dec 2
New

Hourly Weather History & Observations

Time (EST) Temp. Windchill Dew Point Humidity Pressure Visibility Wind Dir Wind Speed Gust Speed Precip Events Conditions
12:54 AM 50.0 °F - 46.9 °F 89% 30.05 in 10.0 mi Calm Calm - N/A   Partly Cloudy
1:54 AM 48.9 °F - 46.0 °F 90% 30.02 in 10.0 mi Calm Calm - N/A   Partly Cloudy
2:48 AM 48.2 °F - 46.4 °F 93% 30.00 in 10.0 mi Calm Calm - N/A   Mostly Cloudy
2:54 AM 50.0 °F - 46.9 °F 89% 29.99 in 10.0 mi Calm Calm - N/A   Mostly Cloudy
3:05 AM 51.8 °F - 48.2 °F 88% 29.99 in 10.0 mi Calm Calm - N/A   Scattered Clouds
3:54 AM 51.1 °F - 48.0 °F 89% 29.95 in 10.0 mi Calm Calm - N/A   Scattered Clouds
4:54 AM 55.0 °F - 53.1 °F 93% 29.94 in 10.0 mi SSW 5.8 mph - N/A   Scattered Clouds
5:54 AM 55.9 °F - 54.0 °F 93% 29.91 in 10.0 mi SW 8.1 mph - N/A   Scattered Clouds
6:54 AM 57.0 °F - 54.0 °F 89% 29.88 in 10.0 mi SSW 9.2 mph 17.3 mph N/A   Scattered Clouds
7:54 AM 57.9 °F - 54.0 °F 87% 29.90 in 10.0 mi WSW 5.8 mph - N/A   Overcast
8:54 AM 59.0 °F - 55.0 °F 87% 29.90 in 10.0 mi WSW 5.8 mph - 0.00 in   Overcast
9:54 AM 59.0 °F - 54.0 °F 83% 29.89 in 10.0 mi West 6.9 mph - N/A   Overcast
10:54 AM 60.1 °F - 54.0 °F 80% 29.88 in 10.0 mi West 6.9 mph - N/A   Overcast
11:54 AM 60.1 °F - 53.1 °F 78% 29.88 in 8.0 mi West 17.3 mph 24.2 mph 0.00 in Rain Light Rain
11:58 AM 59.0 °F - 53.6 °F 82% 29.88 in 6.0 mi West 17.3 mph 25.3 mph 0.00 in Rain Light Rain
12:54 PM 55.9 °F - 52.0 °F 87% 29.88 in 10.0 mi WNW 11.5 mph - 0.04 in Rain Light Rain
1:15 PM 55.4 °F - 51.8 °F 88% 29.88 in 10.0 mi West 12.7 mph - 0.01 in Rain Light Rain
1:54 PM 55.9 °F - 50.0 °F 80% 29.89 in 10.0 mi West 11.5 mph - 0.01 in   Mostly Cloudy
2:54 PM 55.9 °F - 45.0 °F 67% 29.90 in 10.0 mi WNW 23.0 mph 33.4 mph 0.00 in   Mostly Cloudy
3:54 PM 55.0 °F - 39.9 °F 57% 29.92 in 10.0 mi WNW 18.4 mph 32.2 mph N/A   Scattered Clouds
4:54 PM 52.0 °F - 35.1 °F 53% 29.95 in 10.0 mi WNW 9.2 mph 19.6 mph N/A   Scattered Clouds
5:54 PM 50.0 °F - 36.0 °F 59% 29.97 in 10.0 mi WNW 8.1 mph - N/A   Scattered Clouds
6:54 PM 48.9 °F - 35.1 °F 59% 30.00 in 10.0 mi NW 8.1 mph - N/A   Scattered Clouds
7:54 PM 50.0 °F - 34.0 °F 54% 30.02 in 10.0 mi WNW 11.5 mph 19.6 mph N/A   Mostly Cloudy
8:54 PM 48.0 °F - 28.0 °F 46% 30.03 in 10.0 mi WNW 11.5 mph - N/A   Partly Cloudy
9:54 PM 48.0 °F - 28.0 °F 46% 30.03 in 10.0 mi WNW 10.4 mph 21.9 mph N/A   Mostly Cloudy
10:54 PM 46.9 °F - 26.1 °F 44% 30.04 in 10.0 mi WNW 19.6 mph 27.6 mph N/A   Mostly Cloudy
11:54 PM 44.1 °F 38.6 °F 21.0 °F 40% 30.07 in 10.0 mi WNW 10.4 mph 20.7 mph N/A   Partly Cloudy